TimeEDT,TemperatureF,Dew PointF,Humidity,Sea Level PressureIn,VisibilityMPH,Wind Direction,Wind SpeedMPH,Gust SpeedMPH,PrecipitationIn,Events,Conditions,WindDirDegrees,DateUTC
12:00 AM,78.8,69.8,74,29.93,6.2,NE,2.3,-,N/A,,Partly Cloudy,50,2013-10-17 04:00:00
1:00 AM,78.8,69.8,74,29.92,6.2,Calm,Calm,-,N/A,,Partly Cloudy,0,2013-10-17 05:00:00
2:00 AM,77,72,80,29.91,9,Calm,Calm,,,,Scattered Clouds,,2013-10-17 06:00:00
2:00 AM,77.0,71.6,83,29.91,6.2,Calm,Calm,-,N/A,,Partly Cloudy,0,2013-10-17 06:00:00
3:00 AM,77.0,69.8,78,29.89,6.2,Calm,Calm,-,N/A,,Partly Cloudy,0,2013-10-17 07:00:00
4:00 AM,75.2,69.8,83,29.87,6.2,Calm,Calm,-,N/A,,Partly Cloudy,0,2013-10-17 08:00:00
5:00 AM,76,73,88,29.88,9,Calm,Calm,,,,Partly Cloudy,,2013-10-17 09:00:00
5:00 AM,75.2,73.4,94,29.88,6.2,Calm,Calm,-,N/A,,Scattered Clouds,0,2013-10-17 09:00:00
6:00 AM,75.2,71.6,89,29.89,6.2,Calm,Calm,-,N/A,,Partly Cloudy,0,2013-10-17 10:00:00
7:00 AM,77.0,71.6,83,29.91,6.2,Calm,Calm,-,N/A,,Partly Cloudy,0,2013-10-17 11:00:00
8:00 AM,77,74,90,29.94,9,Calm,Calm,,,,Scattered Clouds,,2013-10-17 12:00:00
8:00 AM,77.0,75.2,94,29.93,6.2,Calm,Calm,-,N/A,,Partly Cloudy,0,2013-10-17 12:00:00
9:00 AM,82.4,71.6,70,29.95,6.2,East,3.5,-,N/A,,Partly Cloudy,100,2013-10-17 13:00:00
10:00 AM,82.4,71.6,70,29.96,6.2,ENE,8.1,-,N/A,,Scattered Clouds,70,2013-10-17 14:00:00
11:00 AM,85,75,65,29.98,9,ENE,6.9,,,,Mostly Cloudy,60,2013-10-17 15:00:00
11:00 AM,84.2,75.2,74,29.98,6.2,ENE,6.9,-,N/A,,Mostly Cloudy,60,2013-10-17 15:00:00
12:00 PM,84.2,69.8,62,29.96,6.2,ENE,6.9,-,N/A,,Mostly Cloudy,70,2013-10-17 16:00:00
1:00 PM,84.2,71.6,66,29.95,6.2,ENE,10.4,-,N/A,,Scattered Clouds,70,2013-10-17 17:00:00
2:00 PM,84,75,67,29.93,9,ENE,8.1,,,,Partly Cloudy,70,2013-10-17 18:00:00
2:00 PM,84.2,75.2,74,29.92,6.2,ENE,8.1,-,N/A,,Scattered Clouds,70,2013-10-17 18:00:00
3:00 PM,84.2,71.6,66,29.91,6.2,East,13.8,-,N/A,,Scattered Clouds,80,2013-10-17 19:00:00
4:00 PM,84.2,71.6,66,29.91,6.2,East,11.5,-,N/A,,Partly Cloudy,80,2013-10-17 20:00:00
5:00 PM,85,74,62,29.91,9,ENE,9.2,,,,Partly Cloudy,70,2013-10-17 21:00:00
5:00 PM,84.2,73.4,70,29.91,6.2,ENE,9.2,-,N/A,,Partly Cloudy,70,2013-10-17 21:00:00
6:00 PM,82.4,71.6,70,29.89,6.2,NE,6.9,-,N/A,,Scattered Clouds,40,2013-10-17 22:00:00
7:00 PM,80.6,71.6,74,29.90,6.2,NE,4.6,-,N/A,,Scattered Clouds,50,2013-10-17 23:00:00
8:00 PM,81,75,78,29.93,9,East,6.9,,,,Partly Cloudy,90,2013-10-18 00:00:00
8:00 PM,80.6,75.2,84,29.93,6.2,East,6.9,-,N/A,,Scattered Clouds,90,2013-10-18 00:00:00
9:00 PM,80.6,73.4,79,29.94,6.2,East,9.2,-,N/A,,Scattered Clouds,80,2013-10-18 01:00:00
10:00 PM,80.6,73.4,79,29.96,6.2,East,8.1,-,N/A,,Partly Cloudy,90,2013-10-18 02:00:00
11:00 PM,81,75,78,29.97,9,East,2.3,,,,Scattered Clouds,90,2013-10-18 03:00:00
11:00 PM,80.6,75.2,84,29.96,6.2,Variable,2.3,-,N/A,,Partly Cloudy,0,2013-10-18 03:00:00